Project,Study,Ord_Occ,Event_Num,Date_Time_UTC,Date_Time_PST,Lat_Dec,Lon_Dec,Sta_ID,Line,Sta,Depth,Pressure,Temp0,Temp1,Salt0,CorrSalt0,Salt1,CorrSalt1,O2ml/L,AveCorrO2ml/L,StaCorrO2ml/L,FluorV,AveEstChl,StaEstChl,ISUSV,AveEstNO3,StaEstNO3,SigThetaTS0,SigThetaTS1,BAT,XMiss,SPAR,PAR,BTL_Depth,BTL_Temp,BTL_Salt,BTL_O2ml/L,BTL_Chl,BTL_Pha,BTL_NO3
CalCOFI,0701JD,037,359,23-Jan-2007 5:19:39 AM,22-Jan-2007 9:19:39 PM,32.98866,-120.34884,086.7 060.0,086.7,060.0,514.000,518.298,6.2972,6.2994,34.3073,34.3060,34.3039,34.3040,0.35719,0.40,0.43,0.0254,,,1.6608,38.26,37.829,26.9732,26.9702,0.4285,89.8426,4.8031e+00,9.9990e+03,514,6.29 ,34.306,  .35,,,39.2
CalCOFI,0701JD,037,359,23-Jan-2007 5:20:07 AM,22-Jan-2007 9:20:07 PM,32.98866,-120.34875,086.7 060.0,086.7,060.0,513.000,517.288,6.2925,6.2928,34.3073,34.3060,34.3042,34.3043,0.35449,0.40,0.43,0.0254,,,1.6966,39.31,38.936,26.9738,26.9713,0.4282,89.8490,4.6399e+00,9.9990e+03,,,,,,,
CalCOFI,0701JD,037,359,23-Jan-2007 5:20:38 AM,22-Jan-2007 9:20:38 PM,32.98866,-120.34868,086.7 060.0,086.7,060.0,512.000,516.278,6.3020,6.3032,34.3069,34.3056,34.3039,34.3040,0.35382,0.40,0.42,0.0246,,,1.7295,40.28,39.954,26.9722,26.9697,0.4282,89.8484,4.7069e+00,9.9990e+03,,,,,,,
CalCOFI,0701JD,037,359,23-Jan-2007 5:20:39 AM,22-Jan-2007 9:20:39 PM,32.98866,-120.34868,086.7 060.0,086.7,060.0,511.000,515.269,6.3254,6.3270,34.3060,34.3047,34.3027,34.3028,0.35567,0.40,0.43,0.0251,,,1.7301,40.29,39.972,26.9685,26.9657,0.4281,89.8518,4.7695e+00,9.9990e+03,,,,,,,
CalCOFI,0701JD,037,359,23-Jan-2007 5:20:41 AM,22-Jan-2007 9:20:41 PM,32.98866,-120.34868,086.7 060.0,086.7,060.0,510.000,514.259,6.3470,6.3459,34.3044,34.3031,34.3018,34.3019,0.35981,0.40,0.43,0.0251,,,1.7429,40.67,40.368,26.9644,26.9625,0.4283,89.8466,4.5693e+00,9.9990e+03,,,,,,,
CalCOFI,0701JD,037,359,23-Jan-2007 5:20:42 AM,22-Jan-2007 9:20:42 PM,32.98866,-120.34868,086.7 060.0,086.7,060.0,509.000,513.250,6.3570,6.3566,34.3048,34.3035,34.3013,34.3014,0.36291,0.41,0.44,0.0254,,,1.7230,40.09,39.753,26.9634,26.9607,0.4278,89.8583,4.7069e+00,9.9990e+03,,,,,,,
CalCOFI,0701JD,037,359,23-Jan-2007 5:20:43 AM,22-Jan-2007 9:20:43 PM,32.98866,-120.34868,086.7 060.0,086.7,060.0,508.000,512.240,6.3833,6.3835,34.3033,34.3020,34.2998,34.2999,0.36521,0.41,0.44,0.0262,,,1.6553,38.10,37.659,26.9588,26.9560,0.4283,89.8470,4.4783e+00,9.9990e+03,,,,,,,
CalCOFI,0701JD,037,359,23-Jan-2007 5:20:44 AM,22-Jan-2007 9:20:44 PM,32.98866,-120.34868,086.7 060.0,086.7,060.0,507.000,511.230,6.3972,6.3983,34.3019,34.3006,34.2991,34.2992,0.36679,0.41,0.44,0.0250,,,1.7052,39.56,39.202,26.9559,26.9535,0.4286,89.8410,4.7993e+00,9.9990e+03,,,,,,,
CalCOFI,0701JD,037,359,23-Jan-2007 5:20:45 AM,22-Jan-2007 9:20:45 PM,32.98866,-120.34868,086.7 060.0,086.7,060.0,506.000,510.221,6.4040,6.4045,34.3018,34.3005,34.2992,34.2993,0.36798,0.41,0.44,0.0244,,,1.7057,39.58,39.218,26.9549,26.9528,0.4283,89.8457,4.9068e+00,9.9990e+03,,,,,,,
CalCOFI,0701JD,037,359,23-Jan-2007 5:20:45 AM,22-Jan-2007 9:20:45 PM,32.98866,-120.34868,086.7 060.0,086.7,060.0,505.000,509.211,6.4098,6.4105,34.3014,34.3001,34.2989,34.2990,0.36968,0.42,0.44,0.0249,,,1.6357,37.52,37.053,26.9538,26.9518,0.4288,89.8345,4.7990e+00,9.9990e+03,,,,,,,
CalCOFI,0701JD,037,359,23-Jan-2007 5:20:46 AM,22-Jan-2007 9:20:46 PM,32.98866,-120.34868,086.7 060.0,086.7,060.0,504.000,508.202,6.4106,6.4111,34.3012,34.2999,34.2989,34.2990,0.37025,0.42,0.45,0.0246,,,1.6551,38.09,37.653,26.9536,26.9517,0.4282,89.8488,4.9388e+00,9.9990e+03,,,,,,,
CalCOFI,0701JD,037,359,23-Jan-2007 5:20:47 AM,22-Jan-2007 9:20:47 PM,32.98866,-120.34868,086.7 060.0,086.7,060.0,503.000,507.192,6.4107,6.4112,34.3012,34.2999,34.2988,34.2989,0.37200,0.42,0.45,0.0247,,,1.6719,38.59,38.172,26.9536,26.9516,0.4280,89.8543,3.9375e+00,9.9990e+03,,,,,,,
CalCOFI,0701JD,037,359,23-Jan-2007 5:20:48 AM,22-Jan-2007 9:20:48 PM,32.98866,-120.34868,086.7 060.0,086.7,060.0,502.000,506.182,6.4133,6.4132,34.3011,34.2998,34.2988,34.2989,0.37232,0.42,0.45,0.0252,,,1.6840,38.94,38.547,26.9531,26.9513,0.4279,89.8554,4.5406e+00,9.9990e+03,,,,,,,
CalCOFI,0701JD,037,359,23-Jan-2007 5:20:49 AM,22-Jan-2007 9:20:49 PM,32.98866,-120.34868,086.7 060.0,086.7,060.0,501.000,505.173,6.4136,6.4140,34.3009,34.2996,34.2986,34.2987,0.37292,0.42,0.45,0.0252,,,1.6774,38.75,38.343,26.9528,26.9510,0.4289,89.8333,4.8238e+00,9.9990e+03,,,,,,,
CalCOFI,0701JD,037,359,23-Jan-2007 5:20:50 AM,22-Jan-2007 9:20:50 PM,32.98866,-120.34868,086.7 060.0,086.7,060.0,500.000,504.163,6.4116,6.4122,34.3009,34.2996,34.2985,34.2986,0.37299,0.42,0.45,0.0250,,,1.6944,39.25,38.868,26.9531,26.9512,0.4288,89.8360,4.6531e+00,9.9990e+03,,,,,,,
CalCOFI,0701JD,037,359,23-Jan-2007 5:20:52 AM,22-Jan-2007 9:20:52 PM,32.98866,-120.34868,086.7 060.0,086.7,060.0,499.000,503.154,6.4120,6.4127,34.3007,34.2994,34.2982,34.2983,0.37372,0.42,0.45,0.0248,,,1.6873,39.04,38.649,26.9529,26.9509,0.4285,89.8423,4.5367e+00,9.9990e+03,,,,,,,
CalCOFI,0701JD,037,359,23-Jan-2007 5:20:53 AM,22-Jan-2007 9:20:53 PM,32.98866,-120.34868,086.7 060.0,086.7,060.0,498.000,502.144,6.4132,6.4132,34.3005,34.2992,34.2981,34.2982,0.37384,0.42,0.45,0.0251,,,1.7116,39.75,39.400,26.9526,26.9507,0.4282,89.8493,4.4556e+00,9.9990e+03,,,,,,,
CalCOFI,0701JD,037,359,23-Jan-2007 5:20:54 AM,22-Jan-2007 9:20:54 PM,32.98866,-120.34868,086.7 060.0,086.7,060.0,497.000,501.135,6.4144,6.4148,34.3002,34.2989,34.2980,34.2981,0.37384,0.42,0.45,0.0252,,,1.7113,39.74,39.391,26.9522,26.9504,0.4281,89.8506,4.6104e+00,9.9990e+03,,,,,,,
CalCOFI,0701JD,037,359,23-Jan-2007 5:20:55 AM,22-Jan-2007 9:20:55 PM,32.98866,-120.34868,086.7 060.0,086.7,060.0,496.000,500.125,6.4129,6.4141,34.3004,34.2991,34.2982,34.2983,0.37511,0.42,0.45,0.0244,,,1.6806,38.84,38.441,26.9525,26.9506,0.4283,89.8478,4.2834e+00,9.9990e+03,,,,,,,
CalCOFI,0701JD,037,359,23-Jan-2007 5:20:56 AM,22-Jan-2007 9:20:56 PM,32.98866,-120.34868,086.7 060.0,086.7,060.0,495.000,499.116,6.4148,6.4146,34.3003,34.2990,34.2979,34.2980,0.37505,0.42,0.45,0.0250,,,1.6764,38.72,38.312,26.9522,26.9503,0.4282,89.8481,5.1356e+00,9.9990e+03,,,,,,,
CalCOFI,0701JD,037,359,23-Jan-2007 5:20:56 AM,22-Jan-2007 9:20:56 PM,32.98866,-120.34868,086.7 060.0,086.7,060.0,494.000,498.106,6.4242,6.4248,34.3000,34.2987,34.2970,34.2971,0.37557,0.42,0.45,0.0247,,,1.6941,39.24,38.859,26.9507,26.9483,0.4286,89.8398,4.4693e+00,9.9990e+03,,,,,,,
CalCOFI,0701JD,037,359,23-Jan-2007 5:20:57 AM,22-Jan-2007 9:20:57 PM,32.98866,-120.34868,086.7 060.0,086.7,060.0,493.000,497.097,6.4284,6.4293,34.2994,34.2981,34.2971,34.2972,0.37575,0.42,0.45,0.0248,,,1.6846,38.96,38.565,26.9497,26.9477,0.4282,89.8492,4.4052e+00,9.9990e+03,,,,,,,
CalCOFI,0701JD,037,359,23-Jan-2007 5:20:58 AM,22-Jan-2007 9:20:58 PM,32.98866,-120.34868,086.7 060.0,086.7,060.0,492.000,496.087,6.4292,6.4297,34.2993,34.2980,34.2971,34.2972,0.37684,0.43,0.45,0.0250,,,1.6700,38.53,38.114,26.9495,26.9476,0.4280,89.8525,5.3825e+00,9.9990e+03,,,,,,,
CalCOFI,0701JD,037,359,23-Jan-2007 5:20:59 AM,22-Jan-2007 9:20:59 PM,32.98866,-120.34868,086.7 060.0,086.7,060.0,491.000,495.078,6.4275,6.4273,34.2995,34.2982,34.2971,34.2972,0.37729,0.43,0.45,0.0246,,,1.6560,38.12,37.681,26.9498,26.9480,0.4286,89.8396,4.8921e+00,9.9990e+03,,,,,,,
CalCOFI,0701JD,037,359,23-Jan-2007 5:21:01 AM,22-Jan-2007 9:21:01 PM,32.98866,-120.34868,086.7 060.0,086.7,060.0,490.000,494.068,6.4290,6.4291,34.2993,34.2980,34.2969,34.2970,0.37774,0.43,0.45,0.0248,,,1.6952,39.27,38.893,26.9495,26.9476,0.4284,89.8441,4.5822e+00,9.9990e+03,,,,,,,
CalCOFI,0701JD,037,359,23-Jan-2007 5:21:02 AM,22-Jan-2007 9:21:02 PM,32.98866,-120.34868,086.7 060.0,086.7,060.0,489.000,493.059,6.4295,6.4300,34.2993,34.2980,34.2969,34.2970,0.37811,0.43,0.45,0.0248,,,1.6952,39.27,38.893,26.9494,26.9474,0.4285,89.8427,4.4791e+00,9.9990e+03,,,,,,,
CalCOFI,0701JD,037,359,23-Jan-2007 5:21:03 AM,22-Jan-2007 9:21:03 PM,32.98866,-120.34868,086.7 060.0,086.7,060.0,488.000,492.049,6.4345,6.4345,34.2991,34.2978,34.2968,34.2969,0.37887,0.43,0.46,0.0251,,,1.7132,39.80,39.450,26.9486,26.9468,0.4279,89.8567,5.4675e+00,9.9990e+03,,,,,,,
CalCOFI,0701JD,037,359,23-Jan-2007 5:21:04 AM,22-Jan-2007 9:21:04 PM,32.98866,-120.34868,086.7 060.0,086.7,060.0,487.000,491.040,6.4374,6.4383,34.2988,34.2975,34.2966,34.2967,0.37912,0.43,0.46,0.0250,,,1.7293,40.27,39.947,26.9480,26.9461,0.4278,89.8580,4.8565e+00,9.9990e+03,,,,,,,
CalCOFI,0701JD,037,359,23-Jan-2007 5:21:04 AM,22-Jan-2007 9:21:04 PM,32.98866,-120.34868,086.7 060.0,086.7,060.0,486.000,490.030,6.4399,6.4405,34.2987,34.2974,34.2964,34.2965,0.38079,0.43,0.46,0.0251,,,1.6833,38.92,38.525,26.9475,26.9457,0.4283,89.8468,4.6265e+00,9.9990e+03,,,,,,,
CalCOFI,0701JD,037,359,23-Jan-2007 5:21:05 AM,22-Jan-2007 9:21:05 PM,32.98866,-120.34868,086.7 060.0,086.7,060.0,485.000,489.021,6.4431,6.4437,34.2984,34.2971,34.2960,34.2961,0.38083,0.43,0.46,0.0248,,,1.6740,38.65,38.237,26.9469,26.9449,0.4283,89.8477,4.6977e+00,9.9990e+03,,,,,,,
CalCOFI,0701JD,037,359,23-Jan-2007 5:21:07 AM,22-Jan-2007 9:21:07 PM,32.98866,-120.34868,086.7 060.0,086.7,060.0,484.000,488.011,6.4456,6.4463,34.2978,34.2965,34.2956,34.2957,0.38321,0.43,0.46,0.0247,,,1.6778,38.76,38.355,26.9460,26.9442,0.4285,89.8426,4.9203e+00,9.9990e+03,,,,,,,
CalCOFI,0701JD,037,359,23-Jan-2007 5:21:08 AM,22-Jan-2007 9:21:08 PM,32.98866,-120.34868,086.7 060.0,086.7,060.0,483.000,487.002,6.4492,6.4492,34.2972,34.2959,34.2950,34.2951,0.38593,0.44,0.46,0.0254,,,1.6973,39.33,38.958,26.9451,26.9434,0.4285,89.8430,4.4147e+00,9.9990e+03,,,,,,,
CalCOFI,0701JD,037,359,23-Jan-2007 5:21:09 AM,22-Jan-2007 9:21:09 PM,32.98866,-120.34868,086.7 060.0,086.7,060.0,482.000,485.992,6.4561,6.4561,34.2956,34.2943,34.2933,34.2934,0.38892,0.44,0.47,0.0251,,,1.6873,39.04,38.649,26.9429,26.9411,0.4280,89.8538,5.1152e+00,9.9990e+03,,,,,,,
CalCOFI,0701JD,037,359,23-Jan-2007 5:21:10 AM,22-Jan-2007 9:21:10 PM,32.98866,-120.34868,086.7 060.0,086.7,060.0,481.000,484.983,6.4658,6.4667,34.2943,34.2930,34.2914,34.2915,0.39214,0.44,0.47,0.0249,,,1.6730,38.62,38.206,26.9406,26.9382,0.4283,89.8477,4.2576e+00,9.9990e+03,,,,,,,
CalCOFI,0701JD,037,359,23-Jan-2007 5:21:10 AM,22-Jan-2007 9:21:10 PM,32.98866,-120.34868,086.7 060.0,086.7,060.0,480.000,483.973,6.4756,6.4761,34.2934,34.2921,34.2911,34.2912,0.39403,0.45,0.47,0.0251,,,1.6610,38.27,37.835,26.9386,26.9368,0.4284,89.8435,4.6171e+00,9.9990e+03,,,,,,,
CalCOFI,0701JD,037,359,23-Jan-2007 5:21:12 AM,22-Jan-2007 9:21:12 PM,32.98866,-120.34868,086.7 060.0,086.7,060.0,479.000,482.964,6.4830,6.4843,34.2930,34.2917,34.2904,34.2905,0.39759,0.45,0.48,0.0253,,,1.6598,38.23,37.798,26.9373,26.9351,0.4288,89.8349,5.2012e+00,9.9990e+03,,,,,,,
CalCOFI,0701JD,037,359,23-Jan-2007 5:21:13 AM,22-Jan-2007 9:21:13 PM,32.98866,-120.34868,086.7 060.0,086.7,060.0,478.000,481.954,6.4938,6.4945,34.2917,34.2904,34.2892,34.2893,0.40016,0.45,0.48,0.0250,,,1.6632,38.33,37.903,26.9349,26.9328,0.4289,89.8341,4.9477e+00,9.9990e+03,,,,,,,
CalCOFI,0701JD,037,359,23-Jan-2007 5:21:14 AM,22-Jan-2007 9:21:14 PM,32.98866,-120.34868,086.7 060.0,086.7,060.0,477.000,480.945,6.4987,6.4985,34.2914,34.2901,34.2891,34.2892,0.40309,0.46,0.49,0.0250,,,1.6638,38.35,37.922,26.9340,26.9322,0.4279,89.8555,5.0710e+00,9.9990e+03,,,,,,,
CalCOFI,0701JD,037,359,23-Jan-2007 5:21:15 AM,22-Jan-2007 9:21:15 PM,32.98866,-120.34868,086.7 060.0,086.7,060.0,476.000,479.936,6.5020,6.5023,34.2911,34.2898,34.2888,34.2889,0.40543,0.46,0.49,0.0248,,,1.6702,38.54,38.120,26.9333,26.9314,0.4281,89.8515,4.4381e+00,9.9990e+03,,,,,,,
CalCOFI,0701JD,037,359,23-Jan-2007 5:21:16 AM,22-Jan-2007 9:21:16 PM,32.98866,-120.34868,086.7 060.0,086.7,060.0,475.000,478.926,6.5066,6.5067,34.2901,34.2888,34.2880,34.2881,0.40702,0.46,0.49,0.0247,,,1.6717,38.58,38.166,26.9319,26.9302,0.4279,89.8550,4.5888e+00,9.9990e+03,,,,,,,
CalCOFI,0701JD,037,359,23-Jan-2007 5:21:16 AM,22-Jan-2007 9:21:16 PM,32.98866,-120.34868,086.7 060.0,086.7,060.0,474.000,477.917,6.5095,6.5098,34.2897,34.2884,34.2876,34.2877,0.40992,0.47,0.49,0.0250,,,1.6493,37.92,37.474,26.9312,26.9294,-9.990e-29,-9.990e-29,5.0904e+00,9.9990e+03,,,,,,,
CalCOFI,0701JD,037,359,23-Jan-2007 5:21:17 AM,22-Jan-2007 9:21:17 PM,32.98866,-120.34868,086.7 060.0,086.7,060.0,473.000,476.907,6.5131,6.5135,34.2891,34.2878,34.2868,34.2869,0.41331,0.47,0.50,0.0249,,,1.6479,37.88,37.430,26.9302,26.9284,-9.990e-29,-9.990e-29,4.8015e+00,9.9990e+03,,,,,,,
CalCOFI,0701JD,037,359,23-Jan-2007 5:21:18 AM,22-Jan-2007 9:21:18 PM,32.98866,-120.34868,086.7 060.0,086.7,060.0,472.000,475.898,6.5215,6.5219,34.2883,34.2870,34.2854,34.2855,0.41641,0.47,0.50,0.0249,,,1.6506,37.96,37.514,26.9285,26.9262,-9.990e-29,-9.990e-29,4.5968e+00,9.9990e+03,,,,,,,
CalCOFI,0701JD,037,359,23-Jan-2007 5:21:19 AM,22-Jan-2007 9:21:19 PM,32.98866,-120.34868,086.7 060.0,086.7,060.0,471.000,474.888,6.5330,6.5337,34.2858,34.2845,34.2838,34.2839,0.41986,0.48,0.51,0.0245,,,1.6432,37.74,37.285,26.9250,26.9233,-9.990e-29,-9.990e-29,4.9997e+00,9.9990e+03,,,,,,,
CalCOFI,0701JD,037,359,23-Jan-2007 5:21:20 AM,22-Jan-2007 9:21:20 PM,32.98866,-120.34868,086.7 060.0,086.7,060.0,470.000,473.879,6.5422,6.5441,34.2855,34.2842,34.2829,34.2830,0.42281,0.48,0.51,0.0245,,,1.6333,37.45,36.979,26.9235,26.9212,0.4279,89.8569,4.5906e+00,9.9990e+03,,,,,,,
CalCOFI,0701JD,037,359,23-Jan-2007 5:21:21 AM,22-Jan-2007 9:21:21 PM,32.98866,-120.34868,086.7 060.0,086.7,060.0,469.000,472.870,6.5486,6.5498,34.2846,34.2833,34.2825,34.2826,0.42568,0.48,0.51,0.0252,,,1.6704,38.54,38.126,26.9220,26.9201,0.4279,89.8547,5.1151e+00,9.9990e+03,,,,,,,
CalCOFI,0701JD,037,359,23-Jan-2007 5:21:23 AM,22-Jan-2007 9:21:23 PM,32.98866,-120.34868,086.7 060.0,086.7,060.0,468.000,471.860,6.5573,6.5585,34.2846,34.2833,34.2822,34.2823,0.42789,0.49,0.52,0.0250,,,1.6311,37.39,36.911,26.9208,26.9187,0.4288,89.8357,4.8592e+00,9.9990e+03,,,,,,,
CalCOFI,0701JD,037,359,23-Jan-2007 5:21:24 AM,22-Jan-2007 9:21:24 PM,32.98866,-120.34868,086.7 060.0,086.7,060.0,467.000,470.851,6.5597,6.5602,34.2845,34.2832,34.2823,34.2824,0.42933,0.49,0.52,0.0248,,,1.6387,37.61,37.146,26.9204,26.9186,0.4283,89.8457,4.9807e+00,9.9990e+03,,,,,,,
CalCOFI,0701JD,037,359,23-Jan-2007 5:21:25 AM,22-Jan-2007 9:21:25 PM,32.98866,-120.34868,086.7 060.0,086.7,060.0,466.000,469.841,6.5629,6.5636,34.2845,34.2832,34.2824,34.2825,0.43035,0.49,0.52,0.0252,,,1.6723,38.60,38.185,26.9200,26.9182,0.4279,89.8551,5.0406e+00,9.9990e+03,,,,,,,
CalCOFI,0701JD,037,359,23-Jan-2007 5:21:26 AM,22-Jan-2007 9:21:26 PM,32.98866,-120.34868,086.7 060.0,086.7,060.0,465.000,468.832,6.5644,6.5649,34.2843,34.2830,34.2825,34.2826,0.43083,0.49,0.52,0.0243,,,1.6739,38.65,38.234,26.9196,26.9181,0.4280,89.8525,5.8861e+00,9.9990e+03,,,,,,,
CalCOFI,0701JD,037,359,23-Jan-2007 5:21:27 AM,22-Jan-2007 9:21:27 PM,32.98866,-120.34868,086.7 060.0,086.7,060.0,464.000,467.823,6.5654,6.5656,34.2845,34.2832,34.2826,34.2827,0.43063,0.49,0.52,0.0251,,,1.6700,38.53,38.114,26.9196,26.9181,0.4279,89.8566,4.1393e+00,9.9990e+03,,,,,,,
CalCOFI,0701JD,037,359,23-Jan-2007 5:21:28 AM,22-Jan-2007 9:21:28 PM,32.98866,-120.34868,086.7 060.0,086.7,060.0,463.000,466.813,6.5623,6.5601,34.2841,34.2828,34.2824,34.2825,0.43162,0.49,0.52,0.0246,,,1.6492,37.92,37.471,26.9197,26.9187,0.4285,89.8424,4.5639e+00,9.9990e+03,,,,,,,
CalCOFI,0701JD,037,359,23-Jan-2007 5:21:28 AM,22-Jan-2007 9:21:28 PM,32.98866,-120.34868,086.7 060.0,086.7,060.0,462.000,465.804,6.5675,6.5686,34.2859,34.2846,34.2827,34.2828,0.43327,0.49,0.52,0.0254,,,1.6529,38.03,37.585,26.9204,26.9177,0.4281,89.8507,4.9652e+00,9.9990e+03,,,,,,,
CalCOFI,0701JD,037,359,23-Jan-2007 5:21:29 AM,22-Jan-2007 9:21:29 PM,32.98866,-120.34868,086.7 060.0,086.7,060.0,461.000,464.795,6.6082,6.6076,34.2872,34.2859,34.2834,34.2835,0.43380,0.49,0.52,0.0247,,,1.6628,38.32,37.891,26.9160,26.9131,0.4286,89.8409,5.2729e+00,9.9990e+03,,,,,,,
CalCOFI,0701JD,037,359,23-Jan-2007 5:21:30 AM,22-Jan-2007 9:21:30 PM,32.98866,-120.34868,086.7 060.0,086.7,060.0,460.000,463.785,6.6232,6.6234,34.2861,34.2848,34.2839,34.2840,0.43407,0.50,0.52,0.0254,,,1.6234,37.16,36.673,26.9132,26.9114,0.4287,89.8386,4.7549e+00,9.9990e+03,,,,,,,
CalCOFI,0701JD,037,359,23-Jan-2007 5:21:31 AM,22-Jan-2007 9:21:31 PM,32.98866,-120.34868,086.7 060.0,086.7,060.0,459.000,462.776,6.6296,6.6310,34.2857,34.2844,34.2838,34.2839,0.43457,0.50,0.53,0.0248,,,1.6219,37.12,36.626,26.9120,26.9103,0.4286,89.8402,5.4596e+00,9.9990e+03,,,,,,,
CalCOFI,0701JD,037,359,23-Jan-2007 5:21:32 AM,22-Jan-2007 9:21:32 PM,32.98866,-120.34868,086.7 060.0,086.7,060.0,458.000,461.766,6.6335,6.6352,34.2860,34.2847,34.2838,34.2839,0.43502,0.50,0.53,0.0253,,,1.6707,38.55,38.135,26.9117,26.9097,0.4285,89.8428,5.0245e+00,9.9990e+03,,,,,,,
CalCOFI,0701JD,037,359,23-Jan-2007 5:21:34 AM,22-Jan-2007 9:21:34 PM,32.98866,-120.34868,086.7 060.0,086.7,060.0,457.000,460.757,6.6309,6.6315,34.2858,34.2845,34.2838,34.2839,0.43682,0.50,0.53,0.0252,,,1.6578,38.17,37.736,26.9119,26.9102,0.4278,89.8586,5.0681e+00,9.9990e+03,,,,,,,
CalCOFI,0701JD,037,359,23-Jan-2007 5:21:35 AM,22-Jan-2007 9:21:35 PM,32.98866,-120.34868,086.7 060.0,086.7,060.0,456.000,459.748,6.6386,6.6391,34.2861,34.2848,34.2836,34.2837,0.43821,0.50,0.53,0.0246,,,1.6858,38.99,38.602,26.9110,26.9090,0.4278,89.8580,4.8291e+00,9.9990e+03,,,,,,,
CalCOFI,0701JD,037,359,23-Jan-2007 5:21:36 AM,22-Jan-2007 9:21:36 PM,32.98866,-120.34868,086.7 060.0,086.7,060.0,455.000,458.738,6.6521,6.6532,34.2849,34.2836,34.2831,34.2832,0.43926,0.50,0.53,0.0252,,,1.6255,37.22,36.738,26.9083,26.9067,0.4287,89.8378,4.9379e+00,9.9990e+03,,,,,,,
CalCOFI,0701JD,037,359,23-Jan-2007 5:21:37 AM,22-Jan-2007 9:21:37 PM,32.98866,-120.34868,086.7 060.0,086.7,060.0,454.000,457.729,6.6547,6.6556,34.2848,34.2835,34.2830,34.2831,0.43975,0.50,0.53,0.0248,,,1.6613,38.28,37.845,26.9079,26.9064,0.4291,89.8295,4.8517e+00,9.9990e+03,,,,,,,
CalCOFI,0701JD,037,359,23-Jan-2007 5:21:37 AM,22-Jan-2007 9:21:37 PM,32.98866,-120.34868,086.7 060.0,086.7,060.0,453.000,456.720,6.6608,6.6612,34.2851,34.2838,34.2829,34.2830,0.44101,0.50,0.53,0.0250,,,1.6677,38.46,38.043,26.9073,26.9055,0.4284,89.8436,5.1140e+00,9.9990e+03,,,,,,,
CalCOFI,0701JD,037,359,23-Jan-2007 5:21:39 AM,22-Jan-2007 9:21:39 PM,32.98866,-120.34868,086.7 060.0,086.7,060.0,452.000,455.711,6.6704,6.6711,34.2848,34.2835,34.2827,34.2828,0.44218,0.50,0.53,0.0246,,,1.6630,38.33,37.897,26.9057,26.9040,0.4285,89.8429,4.7778e+00,9.9990e+03,,,,,,,
CalCOFI,0701JD,037,359,23-Jan-2007 5:21:40 AM,22-Jan-2007 9:21:40 PM,32.98866,-120.34868,086.7 060.0,086.7,060.0,451.000,454.701,6.6769,6.6775,34.2844,34.2831,34.2825,34.2826,0.44437,0.51,0.54,0.0252,,,1.6572,38.15,37.718,26.9046,26.9030,0.4281,89.8522,4.4890e+00,9.9990e+03,,,,,,,
CalCOFI,0701JD,037,359,23-Jan-2007 5:21:41 AM,22-Jan-2007 9:21:41 PM,32.98866,-120.34860,086.7 060.0,086.7,060.0,450.000,453.692,6.6813,6.6839,34.2843,34.2830,34.2824,34.2825,0.44591,0.51,0.54,0.0251,,,1.6434,37.75,37.291,26.9039,26.9021,0.4280,89.8536,5.0762e+00,9.9990e+03,,,,,,,
CalCOFI,0701JD,037,359,23-Jan-2007 5:21:42 AM,22-Jan-2007 9:21:42 PM,32.98866,-120.34850,086.7 060.0,086.7,060.0,449.000,452.683,6.6904,6.6906,34.2843,34.2830,34.2821,34.2822,0.44773,0.51,0.54,0.0251,,,1.6307,37.38,36.899,26.9026,26.9009,0.4278,89.8580,4.0465e+00,9.9990e+03,,,,,,,
CalCOFI,0701JD,037,359,23-Jan-2007 5:21:43 AM,22-Jan-2007 9:21:43 PM,32.98866,-120.34850,086.7 060.0,086.7,060.0,448.000,451.673,6.7061,6.7070,34.2847,34.2834,34.2819,34.2820,0.45068,0.52,0.55,0.0250,,,1.6186,37.02,36.524,26.9009,26.8986,0.4281,89.8518,3.9592e+00,9.9990e+03,,,,,,,
CalCOFI,0701JD,037,359,23-Jan-2007 5:21:43 AM,22-Jan-2007 9:21:43 PM,32.98866,-120.34850,086.7 060.0,086.7,060.0,447.000,450.664,6.7374,6.7383,34.2833,34.2820,34.2808,34.2809,0.45299,0.52,0.55,0.0250,,,1.6186,37.02,36.524,26.8956,26.8935,0.4351,89.6951,5.1155e+00,9.9990e+03,,,,,,,
CalCOFI,0701JD,037,359,23-Jan-2007 5:21:44 AM,22-Jan-2007 9:21:44 PM,32.98866,-120.34850,086.7 060.0,086.7,060.0,446.000,449.655,6.7485,6.7493,34.2831,34.2818,34.2811,34.2812,0.45542,0.52,0.55,0.0249,,,1.6205,37.08,36.583,26.8939,26.8922,0.4283,89.8457,4.7069e+00,9.9990e+03,,,,,,,
CalCOFI,0701JD,037,359,23-Jan-2007 5:21:45 AM,22-Jan-2007 9:21:45 PM,32.98866,-120.34850,086.7 060.0,086.7,060.0,445.000,448.645,6.7759,6.7771,34.2839,34.2826,34.2809,34.2810,0.45840,0.52,0.55,0.0252,,,1.6277,37.29,36.806,26.8909,26.8883,0.4280,89.8539,4.6398e+00,9.9990e+03,,,,,,,
CalCOFI,0701JD,037,359,23-Jan-2007 5:21:46 AM,22-Jan-2007 9:21:46 PM,32.98866,-120.34850,086.7 060.0,086.7,060.0,444.000,447.636,6.8050,6.8058,34.2819,34.2806,34.2797,34.2798,0.46176,0.53,0.56,0.0250,,,1.6471,37.86,37.406,26.8853,26.8835,0.4275,89.8644,4.6219e+00,9.9990e+03,,,,,,,
CalCOFI,0701JD,037,359,23-Jan-2007 5:21:47 AM,22-Jan-2007 9:21:47 PM,32.98866,-120.34850,086.7 060.0,086.7,060.0,443.000,446.627,6.8144,6.8148,34.2813,34.2800,34.2795,34.2796,0.46644,0.53,0.56,0.0248,,,1.6502,37.95,37.501,26.8836,26.8821,0.4276,89.8627,4.7260e+00,9.9990e+03,,,,,,,
CalCOFI,0701JD,037,359,23-Jan-2007 5:21:48 AM,22-Jan-2007 9:21:48 PM,32.98866,-120.34850,086.7 060.0,086.7,060.0,442.000,445.618,6.8239,6.8246,34.2819,34.2806,34.2798,34.2799,0.46889,0.54,0.57,0.0252,,,1.6437,37.76,37.300,26.8827,26.8810,0.4277,89.8611,5.0381e+00,9.9990e+03,,,,,,,
CalCOFI,0701JD,037,359,23-Jan-2007 5:21:49 AM,22-Jan-2007 9:21:49 PM,32.98866,-120.34850,086.7 060.0,086.7,060.0,441.000,444.608,6.8350,6.8354,34.2814,34.2801,34.2797,34.2798,0.47161,0.54,0.57,0.0250,,,1.6573,38.16,37.721,26.8809,26.8795,0.4282,89.8484,4.5927e+00,9.9990e+03,,,,,,,
CalCOFI,0701JD,037,359,23-Jan-2007 5:21:50 AM,22-Jan-2007 9:21:50 PM,32.98866,-120.34850,086.7 060.0,086.7,060.0,440.000,443.599,6.8429,6.8433,34.2807,34.2794,34.2791,34.2792,0.47465,0.54,0.57,0.0253,,,1.6626,38.31,37.885,26.8792,26.8779,0.4280,89.8531,4.9171e+00,9.9990e+03,,,,,,,
CalCOFI,0701JD,037,359,23-Jan-2007 5:21:51 AM,22-Jan-2007 9:21:51 PM,32.98866,-120.34850,086.7 060.0,086.7,060.0,439.000,442.590,6.8517,6.8527,34.2798,34.2785,34.2781,34.2782,0.47959,0.55,0.58,0.0249,,,1.6096,36.76,36.246,26.8773,26.8758,0.4278,89.8591,4.7974e+00,9.9990e+03,,,,,,,
CalCOFI,0701JD,037,359,23-Jan-2007 5:21:52 AM,22-Jan-2007 9:21:52 PM,32.98866,-120.34850,086.7 060.0,086.7,060.0,438.000,441.581,6.8731,6.8735,34.2789,34.2776,34.2765,34.2766,0.48322,0.55,0.59,0.0249,,,1.6373,37.57,37.103,26.8737,26.8718,0.4277,89.8608,5.0211e+00,9.9990e+03,,,,,,,
CalCOFI,0701JD,037,359,23-Jan-2007 5:21:54 AM,22-Jan-2007 9:21:54 PM,32.98866,-120.34850,086.7 060.0,086.7,060.0,437.000,440.571,6.8901,6.8931,34.2774,34.2761,34.2755,34.2756,0.48407,0.56,0.59,0.0250,,,1.6393,37.63,37.164,26.8702,26.8683,0.4271,89.8745,4.7391e+00,9.9990e+03,437,6.90 ,34.278,  .56,,,37.0
CalCOFI,0701JD,037,359,23-Jan-2007 5:21:59 AM,22-Jan-2007 9:21:59 PM,32.98866,-120.34850,086.7 060.0,086.7,060.0,436.000,439.562,6.8101,6.8094,34.2801,34.2788,34.2788,34.2789,0.47317,0.54,0.57,0.0249,,,1.6508,37.97,37.520,26.8832,26.8822,0.4279,89.8566,4.9769e+00,9.9990e+03,,,,,,,
CalCOFI,0701JD,037,359,23-Jan-2007 5:22:41 AM,22-Jan-2007 9:22:41 PM,32.98851,-120.34845,086.7 060.0,086.7,060.0,435.000,438.553,6.9020,6.9025,34.2760,34.2747,34.2743,34.2744,0.49793,0.57,0.60,0.0250,,,1.6227,37.14,36.651,26.8674,26.8661,0.4285,89.8425,4.6312e+00,9.9990e+03,,,,,,,
CalCOFI,0701JD,037,359,23-Jan-2007 5:23:13 AM,22-Jan-2007 9:23:13 PM,32.98850,-120.34834,086.7 060.0,086.7,060.0,434.000,437.544,6.9256,6.9280,34.2750,34.2737,34.2728,34.2729,0.51043,0.59,0.62,0.0253,,,1.6166,36.96,36.463,26.8635,26.8614,0.4279,89.8568,5.0547e+00,9.9990e+03,,,,,,,
CalCOFI,0701JD,037,359,23-Jan-2007 5:23:14 AM,22-Jan-2007 9:23:14 PM,32.98850,-120.34834,086.7 060.0,086.7,060.0,433.000,436.534,6.9577,6.9564,34.2735,34.2722,34.2712,34.2713,0.51404,0.59,0.62,0.0246,,,1.6060,36.65,36.135,26.8579,26.8563,0.4286,89.8400,5.3524e+00,9.9990e+03,,,,,,,
CalCOFI,0701JD,037,359,23-Jan-2007 5:23:15 AM,22-Jan-2007 9:23:15 PM,32.98850,-120.34833,086.7 060.0,086.7,060.0,432.000,435.525,6.9824,6.9822,34.2711,34.2698,34.2696,34.2697,0.51624,0.60,0.63,0.0250,,,1.6251,37.21,36.725,26.8526,26.8515,0.4291,89.8286,5.0009e+00,9.9990e+03,,,,,,,